TimeEST,TemperatureF,Dew PointF,Humidity,Sea Level PressureIn,VisibilityMPH,Wind Direction,Wind SpeedMPH,Gust SpeedMPH,PrecipitationIn,Events,Conditions,WindDirDegrees,DateUTC
12:22 AM,44.1,37.9,79,30.04,10.0,North,9.2,-,N/A,,Mostly Cloudy,360,2014-02-06 05:22:00
12:29 AM,44.1,37.0,76,30.04,10.0,North,10.4,-,N/A,,Partly Cloudy,350,2014-02-06 05:29:00
12:56 AM,43.0,35.1,74,30.06,10.0,North,11.5,-,N/A,,Clear,350,2014-02-06 05:56:00
1:56 AM,41.0,30.0,65,30.10,10.0,North,15.0,21.9,N/A,,Partly Cloudy,350,2014-02-06 06:56:00
2:56 AM,39.0,24.1,55,30.13,10.0,North,11.5,18.4,N/A,,Clear,360,2014-02-06 07:56:00
3:56 AM,37.9,21.9,53,30.17,10.0,NNW,13.8,25.3,N/A,,Clear,340,2014-02-06 08:56:00
4:56 AM,36.0,21.0,55,30.20,10.0,North,12.7,-,N/A,,Clear,360,2014-02-06 09:56:00
5:56 AM,36.0,21.0,55,30.21,10.0,North,13.8,21.9,N/A,,Mostly Cloudy,360,2014-02-06 10:56:00
6:56 AM,36.0,21.9,57,30.24,10.0,North,16.1,23.0,N/A,,Overcast,10,2014-02-06 11:56:00
7:56 AM,36.0,21.9,57,30.27,10.0,North,12.7,20.7,N/A,,Overcast,360,2014-02-06 12:56:00
8:56 AM,36.0,21.0,55,30.30,10.0,North,13.8,-,N/A,,Overcast,10,2014-02-06 13:56:00
9:56 AM,37.0,21.9,54,30.32,10.0,North,12.7,21.9,N/A,,Overcast,360,2014-02-06 14:56:00
10:56 AM,37.9,21.0,51,30.33,10.0,North,16.1,-,N/A,,Overcast,10,2014-02-06 15:56:00
11:56 AM,37.9,21.0,51,30.32,10.0,North,16.1,19.6,N/A,,Overcast,350,2014-02-06 16:56:00
12:56 PM,37.9,21.0,51,30.31,10.0,North,11.5,21.9,N/A,,Mostly Cloudy,10,2014-02-06 17:56:00
1:56 PM,37.0,21.0,52,30.31,10.0,North,11.5,-,N/A,,Mostly Cloudy,10,2014-02-06 18:56:00
2:56 PM,37.0,21.0,52,30.30,10.0,NNE,8.1,-,N/A,,Partly Cloudy,20,2014-02-06 19:56:00
3:56 PM,37.0,21.0,52,30.30,10.0,North,9.2,-,N/A,,Clear,350,2014-02-06 20:56:00
4:56 PM,36.0,21.0,55,30.30,10.0,North,8.1,-,N/A,,Clear,350,2014-02-06 21:56:00
5:56 PM,35.1,21.0,57,30.31,10.0,NNE,3.5,-,N/A,,Clear,20,2014-02-06 22:56:00
6:56 PM,35.1,21.9,59,30.33,10.0,Calm,Calm,-,N/A,,Clear,0,2014-02-06 23:56:00
7:56 PM,34.0,24.1,67,30.29,10.0,ENE,3.5,-,N/A,,Clear,60,2014-02-07 00:56:00
8:56 PM,35.1,24.1,64,30.34,10.0,Calm,Calm,-,N/A,,Clear,0,2014-02-07 01:56:00
9:56 PM,35.1,23.0,61,30.37,10.0,Calm,Calm,-,N/A,,Mostly Cloudy,0,2014-02-07 02:56:00
10:56 PM,36.0,24.1,62,30.32,10.0,Calm,Calm,-,N/A,,Overcast,0,2014-02-07 03:56:00
11:56 PM,36.0,24.1,62,30.32,10.0,Calm,Calm,-,N/A,,Overcast,0,2014-02-07 04:56:00